User: anonymous   Login
Location: Caltech
(34.1382°N, 118.1253°W)
Time: 04:18:04
(UTC-08:00)
Language:

Iridium 91 - Orbit

View from above orbital plane
View from above orbital plane
View from above satellite
View from above satellite

Ground track
Ground track

The orbit data is extracted from the following two-line orbital elements,

1 27372U 02005A   18053.41670633  .00000131  00000-0  39605-4 0  9997
2 27372  86.4014 182.5968 0001702  89.7985 270.3405 14.34212683847498
Epoch (UTC): 22 February 2018 10:00:03
Eccentricity: 0.0001702
inclination: 86.4014°
perigee height: 776 km
apogee height: 779 km
right ascension of ascending node: 182.5968°
argument of perigee: 89.7985°
revolutions per day: 14.34212683
mean anomaly at epoch: 270.3405°
orbit number at epoch: 84749

The dashed part of the orbit path shows where the satellite is in the earth's shadow,  

DLR